Location: Proctor
(47.8934°N, 114.3048°W)
Time: 22:20:10
(UTC+00:00)

Tiros 1 despin weight - Pass Details

Date: 01 July 2024
Orbit: 576 x 620 km, 48.2° (Epoch: 19 July)

Event Time Altitude Azimuth Distance (km) Brightness Sun altitude
Rises 17:28:52 0° 248° (WSW) 2,865 ? 53.8°
Reaches altitude 10° 17:31:10 10° 246° (WSW) 1,968 ? 54.1°
Maximum altitude 17:35:40 72° 163° (SSE) 652 ? 54.8°
Drops below altitude 10° 17:40:14 10° 80° (E) 1,988 ? 55.4°
Sets 17:42:34 0° 78° (ENE) 2,896 ? 55.7°
